[[{"header":{"parameterUnit":"m.s-1","parameterCategory":1,"la1":30.2991,"la2":30.254,"lo1":-89.0895,"lo2":-89.0444,"dy":0.0017,"dx":0.0017,"nx":28,"ny":28,"refTime":"2025-09-18T03:00:00:Z","depth":0,"parameterNumber":2,"parameterNumberName":"U-component_of_WINDS"},"data":[0,0,0,0,0,0,0,0,0,0,0,0,0,0,0,0,0,0,0,0,0,0,0,0,0,0,0,0,0,0,0,0,0,0,0,0,0,0,0,0,0,0,0,0,0,0,0,0,0,0,0,0,0,0,0,0,0,0,1.2825,1.2825,0,1.2826,1.2826,1.2826,1.281,1.281,1.2809,1.2809,1.281,1.281,1.2811,0,0,0,0,0,0,0,0,0,0,0,0,0,1.281,1.281,1.2825,1.2825,1.2825,1.2826,1.2826,1.2826,1.281,1.281,1.2809,1.2809,1.281,1.281,1.2811,0,0,0,0,0,0,0,0,0,0,0,0,0,1.2814,1.281,1.2825,1.2817,1.2816,1.2826,1.2826,1.2826,1.281,1.281,1.2809,1.2808,1.281,1.281,1.2811,1.2827,0,0,1.2813,1.2813,0,0,0,0,0,0,0,0,1.2814,1.2815,1.2818,1.2818,1.2817,1.2817,1.2821,1.2826,1.281,1.2813,1.2809,1.2808,1.2813,1.2813,1.2815,1.2827,1.2827,1.2813,1.2813,1.2813,1.2814,0,0,0,0,0,0,0,1.2814,1.2815,1.2825,1.2818,1.2818,1.2814,1.2814,1.2822,1.2816,1.2812,1.2811,1.2812,1.2812,1.2814,1.2815,1.2828,1.2813,1.2813,1.2814,1.2814,1.2855,1.2855,0,0,0,0,0,0,1.2814,1.2815,1.2825,1.2825,1.2814,1.2815,1.2815,1.2818,1.2816,1.2815,1.2812,1.2811,1.2813,1.2814,1.2815,1.2834,1.2813,1.2814,1.2814,1.2854,1.2855,1.2855,0,0,0,0,0,0,1.2814,1.2816,1.2825,1.282,1.282,1.2816,1.2819,1.2818,1.282,1.2816,1.2815,1.2815,1.2813,1.2814,1.2824,1.2834,1.2814,1.2815,1.2853,1.2854,1.2855,1.2873,0,0,0,0,0,0,1.2814,1.2816,1.2821,1.282,1.2821,1.2835,1.282,1.2819,1.2821,1.2819,1.2818,1.2818,1.2812,1.2824,1.2825,1.2834,1.2815,1.2852,1.2854,1.2855,1.2871,1.2874,1.2877,0,0,0,0,0,1.2813,1.2826,1.2822,1.2823,1.2828,1.2835,1.2836,1.283,1.2822,1.2828,1.2826,1.2818,1.2833,1.2825,1.2826,1.2836,1.2852,1.2853,1.2855,1.287,1.2874,1.2877,0,0,0,0,0,0,1.2829,1.2826,1.2821,1.2834,1.2835,1.2833,1.284,1.2834,1.2837,1.2835,1.2828,1.2828,1.284,1.2839,1.283,1.2852,1.2841,1.2843,1.2852,1.2855,1.2858,1.2857,1.2816,0,0,0,0,0,1.2834,1.284,1.2837,1.2848,1.2849,1.2845,1.2847,1.2843,1.2844,1.2844,1.2842,1.2844,1.2849,1.2852,1.2857,1.2872,1.2871,1.2879,1.2882,1.2884,1.2885,1.2893,1.2897,1.2861,1.2861,1.2861,0,0,1.2844,1.2843,1.2847,1.2851,1.2852,1.2858,1.2845,1.2852,1.2857,1.2845,1.2855,1.2854,1.2855,1.2868,1.2874,1.2868,1.2896,1.2886,1.2888,1.2888,1.2895,1.2899,1.2902,1.2862,1.2862,1.2861,0,0,1.2865,1.2865,1.2875,1.2876,1.2877,1.2874,1.2876,1.2875,1.2874,1.2884,1.2876,1.2882,1.289,1.2892,1.2893,1.2917,1.291,1.2919,1.2932,1.294,1.2943,1.2946,1.2954,1.2957,1.292,1.292,1.292,0,1.2877,1.2886,1.288,1.2888,1.2891,1.2881,1.2891,1.2892,1.2895,1.2897,1.289,1.2902,1.2902,1.2915,1.2921,1.2923,1.2925,1.2918,1.2943,1.2946,1.2948,1.2955,1.2959,1.2921,1.2921,1.2921,1.2921,0,1.2901,1.2908,1.2915,1.2918,1.2922,1.2931,1.2926,1.2931,1.2926,1.2924,1.2935,1.2935,1.2939,1.2943,1.2938,1.2955,1.2952,1.2945,1.2933,1.2953,1.2959,1.2962,1.2923,1.2923,1.2922,1.2922,0,0,1.293,1.2931,1.2934,1.2935,1.2936,1.2941,1.295,1.2955,1.2959,1.2961,1.2968,1.2977,1.2971,1.2973,1.2969,1.2976,1.2994,1.2968,1.2968,1.2972,1.3013,1.3017,1.3021,1.299,1.2991,1.2991,1.3013,0,1.295,1.2965,1.2961,1.2976,1.2982,1.2974,1.2982,1.2984,1.2982,1.2988,1.2987,1.2992,1.2984,1.2985,1.2992,1.299,1.3002,1.2989,1.2996,1.2997,1.2995,1.3025,1.3029,1.3049,1.3015,1.3016,1.3016,0,1.2975,1.2979,1.2995,1.2996,1.2998,1.3005,1.3009,1.3015,1.3017,1.3016,1.3019,1.3014,1.3023,1.3012,1.3025,1.3016,1.3019,1.3019,1.302,1.3019,1.3007,1.3024,1.3056,1.3059,1.302,1.302,1.302,0,1.2994,1.3004,1.3014,1.3016,1.3017,1.3022,1.3023,1.3025,1.3028,1.3032,1.3034,1.304,1.3042,1.3046,1.3043,1.3036,1.3056,1.3045,1.3055,1.3055,1.3058,1.3058,1.309,1.3062,1.3062,1.3062,1.3062,0,1.3017,1.3026,1.3023,1.3029,1.304,1.3036,1.3047,1.3047,1.3049,1.3055,1.3049,1.3055,1.3051,1.3057,1.3054,1.3065,1.3066,1.3065,1.3064,1.3065,1.3065,1.3066,1.3064,1.3063,1.3063,1.3062,1.3062,0,1.3039,1.3037,1.3048,1.3049,1.305,1.3058,1.3058,1.3064,1.3064,1.3072,1.3074,1.3072,1.3079,1.3076,1.3083,1.3082,1.3095,1.3093,1.3094,1.3093,1.3103,1.3102,1.3136,1.314,1.3111,1.3111,1.3111,0,1.3053,1.306,1.3062,1.3066,1.3068,1.3074,1.3078,1.3074,1.3078,1.3082,1.3088,1.3094,1.3099,1.311,1.311,1.3116,1.3113,1.3125,1.3113,1.3114,1.3112,1.3111,1.3112,1.3126,1.3127,1.3127,1.3127,0,1.3077,1.3076,1.3082,1.3087,1.3092,1.3096,1.3099,1.3103,1.31,1.3105,1.3112,1.3116,1.3124,1.313,1.3135,1.3136,1.3131,1.3131,1.3133,1.3134,1.3134,1.3133,1.3099,1.313,1.3129,1.3129,1.3129,1.3129,1.3095,1.3101,1.3104,1.3111,1.3113,1.3117,1.3123,1.3123,1.3129,1.3135,1.3133,1.3141,1.3144,1.3151,1.3153,1.3159,1.3154,1.3158,1.3159,1.316,1.3161,1.3134,1.316,1.316,1.316,1.316,1.316,0,1.3119,1.312,1.3126,1.3132,1.3137,1.3133,1.3137,1.3141,1.3149,1.3152,1.3157,1.3166,1.3172,1.3173,1.3179,1.3184,1.3182,1.3186,1.3185,1.3185,1.3165,1.3161,1.3187,1.3187,1.3187,1.3187,1.3187,1.3187,1.3131,1.3142,1.3141,1.3153,1.3155,1.3163,1.3166,1.3169,1.3172,1.3182,1.3187,1.3188,1.319,1.3197,1.3203,1.3203,1.3205,1.321,1.3209,1.3189,1.3186,1.3184,1.3181,1.321,1.321,1.3228,1.3229,1.3229]},{"header":{"parameterUnit":"m.s-1","parameterCategory":1,"la1":30.2991,"la2":30.254,"lo1":-89.0895,"lo2":-89.0444,"dy":0.0017,"dx":0.0017,"nx":28,"ny":28,"refTime":"2025-09-18T03:00:00:Z","depth":0,"parameterNumber":3,"parameterNumberName":"V-component_of_WINDS"},"data":[0,0,0,0,0,0,0,0,0,0,0,0,0,0,0,0,0,0,0,0,0,0,0,0,0,0,0,0,0,0,0,0,0,0,0,0,0,0,0,0,0,0,0,0,0,0,0,0,0,0,0,0,0,0,0,0,0,0,-1.8418,-1.8418,0,-1.842,-1.8421,-1.8421,-1.8404,-1.8403,-1.8403,-1.8402,-1.8404,-1.8405,-1.8405,0,0,0,0,0,0,0,0,0,0,0,0,0,-1.8397,-1.8397,-1.8418,-1.8418,-1.8418,-1.842,-1.8421,-1.8421,-1.8404,-1.8403,-1.8402,-1.8402,-1.8404,-1.8405,-1.8405,0,0,0,0,0,0,0,0,0,0,0,0,0,-1.8404,-1.8398,-1.8418,-1.841,-1.8409,-1.842,-1.8421,-1.8421,-1.8404,-1.8403,-1.8402,-1.8402,-1.8404,-1.8405,-1.8405,-1.8425,0,0,-1.8408,-1.8408,0,0,0,0,0,0,0,0,-1.8403,-1.8404,-1.8411,-1.841,-1.841,-1.8411,-1.8414,-1.8422,-1.8404,-1.8406,-1.8402,-1.8401,-1.8407,-1.8408,-1.841,-1.8425,-1.8425,-1.8408,-1.8408,-1.8409,-1.8409,0,0,0,0,0,0,0,-1.8403,-1.8404,-1.8419,-1.8411,-1.841,-1.8406,-1.8406,-1.8415,-1.841,-1.8406,-1.8404,-1.8405,-1.8407,-1.8409,-1.841,-1.8425,-1.8408,-1.8408,-1.8409,-1.8409,-1.8454,-1.8455,0,0,0,0,0,0,-1.8403,-1.8404,-1.8419,-1.8419,-1.8405,-1.8407,-1.8407,-1.8411,-1.841,-1.8409,-1.8406,-1.8404,-1.8408,-1.8409,-1.841,-1.843,-1.8409,-1.8409,-1.841,-1.8453,-1.8454,-1.8455,0,0,0,0,0,0,-1.8403,-1.8405,-1.8419,-1.8411,-1.8412,-1.8408,-1.8413,-1.8412,-1.8414,-1.841,-1.8409,-1.8409,-1.8407,-1.8408,-1.8421,-1.843,-1.841,-1.841,-1.8452,-1.8454,-1.8455,-1.8473,0,0,0,0,0,0,-1.8403,-1.8405,-1.8412,-1.8411,-1.8413,-1.843,-1.8414,-1.8412,-1.8415,-1.8414,-1.8413,-1.8412,-1.8407,-1.842,-1.8421,-1.8431,-1.8411,-1.8451,-1.8453,-1.8454,-1.8472,-1.8475,-1.8478,0,0,0,0,0,-1.8402,-1.8418,-1.8413,-1.8415,-1.8422,-1.8431,-1.8431,-1.8425,-1.8416,-1.8423,-1.8421,-1.8412,-1.8429,-1.8421,-1.8423,-1.8433,-1.8451,-1.8453,-1.8454,-1.847,-1.8474,-1.8478,0,0,0,0,0,0,-1.842,-1.8418,-1.8412,-1.8428,-1.843,-1.8428,-1.8437,-1.843,-1.8434,-1.8432,-1.8424,-1.8424,-1.8437,-1.8436,-1.8427,-1.8451,-1.8438,-1.8441,-1.845,-1.8454,-1.8457,-1.8456,-1.8412,0,0,0,0,0,-1.8426,-1.8433,-1.8431,-1.8445,-1.8446,-1.8441,-1.8445,-1.844,-1.8441,-1.8442,-1.844,-1.8441,-1.8447,-1.845,-1.8455,-1.8472,-1.8471,-1.848,-1.8483,-1.8485,-1.8487,-1.8494,-1.8497,-1.846,-1.846,-1.846,0,0,-1.8438,-1.8438,-1.8443,-1.8449,-1.8449,-1.8456,-1.8442,-1.8451,-1.8455,-1.8443,-1.8454,-1.8453,-1.8454,-1.8468,-1.8474,-1.8468,-1.8497,-1.8487,-1.8489,-1.8489,-1.8496,-1.8499,-1.8503,-1.8462,-1.8461,-1.8461,0,0,-1.8464,-1.8465,-1.8476,-1.8477,-1.8478,-1.8475,-1.8477,-1.8476,-1.8475,-1.8486,-1.8476,-1.8482,-1.8492,-1.8493,-1.8494,-1.852,-1.8512,-1.8522,-1.8536,-1.8544,-1.8547,-1.8549,-1.8557,-1.856,-1.8524,-1.8524,-1.8524,0,-1.8479,-1.8489,-1.8483,-1.8492,-1.8494,-1.8483,-1.8494,-1.8495,-1.8498,-1.8499,-1.8493,-1.8504,-1.8504,-1.8517,-1.8524,-1.8526,-1.8528,-1.8521,-1.8547,-1.8549,-1.8551,-1.8558,-1.8562,-1.8525,-1.8525,-1.8524,-1.8524,0,-1.8507,-1.8514,-1.8523,-1.8526,-1.8529,-1.8539,-1.8534,-1.8538,-1.8533,-1.853,-1.8541,-1.854,-1.8544,-1.8548,-1.8543,-1.856,-1.8556,-1.8548,-1.8535,-1.8556,-1.8563,-1.8565,-1.8526,-1.8526,-1.8526,-1.8525,0,0,-1.8543,-1.8542,-1.8545,-1.8545,-1.8546,-1.8551,-1.856,-1.8564,-1.8567,-1.857,-1.8576,-1.8585,-1.8578,-1.8579,-1.8575,-1.8581,-1.8599,-1.8572,-1.8572,-1.8576,-1.8617,-1.8621,-1.8625,-1.8595,-1.8595,-1.8596,-1.8616,0,-1.8567,-1.8582,-1.8576,-1.8592,-1.8598,-1.8587,-1.8595,-1.8596,-1.8594,-1.8598,-1.8596,-1.8601,-1.8592,-1.8593,-1.8599,-1.8596,-1.8607,-1.8595,-1.86,-1.86,-1.8598,-1.8628,-1.8634,-1.8653,-1.8619,-1.8619,-1.862,0,-1.8596,-1.8599,-1.8615,-1.8613,-1.8616,-1.8623,-1.8625,-1.863,-1.8631,-1.8628,-1.863,-1.8624,-1.8632,-1.862,-1.8631,-1.8622,-1.8624,-1.8623,-1.8624,-1.8623,-1.861,-1.8627,-1.8659,-1.8662,-1.8624,-1.8623,-1.8623,0,-1.8619,-1.8627,-1.8637,-1.8638,-1.8637,-1.8642,-1.8642,-1.8641,-1.8644,-1.8646,-1.8647,-1.8651,-1.8653,-1.8655,-1.865,-1.8642,-1.866,-1.8649,-1.8658,-1.8658,-1.8661,-1.8661,-1.8693,-1.8665,-1.8665,-1.8665,-1.8665,0,-1.8645,-1.8655,-1.8648,-1.8654,-1.8664,-1.8657,-1.8668,-1.8666,-1.8666,-1.8671,-1.8663,-1.8668,-1.8661,-1.8665,-1.8661,-1.867,-1.8671,-1.8669,-1.8667,-1.8669,-1.8669,-1.8669,-1.8667,-1.8666,-1.8665,-1.8665,-1.8665,0,-1.8672,-1.8668,-1.8678,-1.8675,-1.8675,-1.8683,-1.868,-1.8686,-1.8683,-1.869,-1.8691,-1.8686,-1.8691,-1.8686,-1.869,-1.8687,-1.8698,-1.8696,-1.8698,-1.8697,-1.8705,-1.8704,-1.8737,-1.8741,-1.8712,-1.8712,-1.8713,0,-1.8688,-1.8695,-1.8694,-1.8696,-1.8696,-1.8701,-1.8704,-1.8697,-1.87,-1.8701,-1.8706,-1.8709,-1.8712,-1.872,-1.8716,-1.8719,-1.8716,-1.8727,-1.8716,-1.8717,-1.8714,-1.8713,-1.8713,-1.8729,-1.8729,-1.873,-1.873,0,-1.8717,-1.8714,-1.8718,-1.872,-1.8723,-1.8725,-1.8726,-1.8729,-1.8722,-1.8726,-1.873,-1.8732,-1.8736,-1.874,-1.8742,-1.8741,-1.8734,-1.8734,-1.8736,-1.8736,-1.8737,-1.8735,-1.8702,-1.8733,-1.8732,-1.8732,-1.8732,-1.8732,-1.8738,-1.8743,-1.8742,-1.8746,-1.8746,-1.8748,-1.8752,-1.875,-1.8753,-1.8756,-1.8752,-1.8757,-1.8757,-1.8759,-1.8759,-1.8762,-1.8757,-1.8761,-1.8761,-1.8762,-1.8762,-1.8737,-1.8763,-1.8763,-1.8763,-1.8763,-1.8763,0,-1.8764,-1.8763,-1.8767,-1.8769,-1.8772,-1.8765,-1.8766,-1.8769,-1.8774,-1.8774,-1.8776,-1.8781,-1.8784,-1.8781,-1.8784,-1.8787,-1.8784,-1.8788,-1.8787,-1.8787,-1.8767,-1.8765,-1.879,-1.879,-1.879,-1.879,-1.879,-1.879,-1.8779,-1.8787,-1.8784,-1.8792,-1.8791,-1.8796,-1.8797,-1.8797,-1.8797,-1.8803,-1.8805,-1.8803,-1.8802,-1.8804,-1.8807,-1.8806,-1.8807,-1.8811,-1.8809,-1.8791,-1.8788,-1.8785,-1.8783,-1.8812,-1.8812,-1.8828,-1.8828,-1.8828]}]]